KF4IRC Mobile AL US current weather conditions

sailwx.info

Wind from 165

Air temperature 7.8° C
Dewpoint 2.0° C

Last reported at 2019-Dec-06 05:09 UTC.
Time now 2019-Dec-06 05:36 UTC

Location: N 30°40' W 088°07'.
View on Google Maps.

See reports from other nearby stations

  
Tides and Currents Weather Stations Pressure Air Temp Water Temp Dewpoint Dewpoint Depression Visibility Wind Speed Wind Dir Waves Ship Positions
date/time (UTC)wind fromknots sea level pressurealtimeterstation pressurevisibilityair tempwater tempwave heightnotes
2019-Dec-06 05:09 165 7.8
2019-Dec-06 04:58 165 7.8
2019-Dec-06 04:48 165 7.2
2019-Dec-06 04:39 165 7.2
2019-Dec-06 04:28 165 7.8
2019-Dec-06 04:18 165 7.8
2019-Dec-06 04:08 165 7.8
2019-Dec-06 03:58 165 7.8
2019-Dec-06 03:48 165 7.8
2019-Dec-06 03:38 165 7.8
2019-Dec-06 03:29 165 7.8
2019-Dec-06 03:19 165 8.3
2019-Dec-06 03:09 165 8.3
2019-Dec-06 02:57 165 8.3
2019-Dec-06 02:49 165 8.3
2019-Dec-06 02:38 165 8.3
2019-Dec-06 02:28 165 8.3
2019-Dec-06 02:18 165 8.9
2019-Dec-06 02:08 165 8.9
2019-Dec-06 01:59 165 8.9
2019-Dec-06 01:48 165 8.9
2019-Dec-06 01:39 165 9.4
2019-Dec-06 01:29 165 9.4
2019-Dec-06 01:18 165 9.4
2019-Dec-06 01:08 165 10.0
2019-Dec-06 00:57 165 10.0
2019-Dec-06 00:49 165 10.0
2019-Dec-06 00:38 165 10.6
2019-Dec-06 00:29 165 10.6
2019-Dec-06 00:18 165 11.1
2019-Dec-06 00:08 165 11.7
2019-Dec-05 23:59 165 11.7
2019-Dec-05 23:49 165 12.2
2019-Dec-05 23:39 165 12.8
2019-Dec-05 23:28 165 13.3
2019-Dec-05 23:19 165 13.9
2019-Dec-05 23:08 165 14.4
2019-Dec-05 22:58 165 15.6
2019-Dec-05 22:48 165 16.1
2019-Dec-05 22:38 165 16.7
2019-Dec-05 22:28 165 16.7
2019-Dec-05 22:18 165 17.2
2019-Dec-05 22:07 166 17.8
2019-Dec-05 21:58 155 18.3
2019-Dec-05 21:48 155 18.3
2019-Dec-05 21:38 196 18.9
2019-Dec-05 21:28 196 0 gusting 3 19.4
2019-Dec-05 21:18 113 0 gusting 2 19.4
2019-Dec-05 21:09 116 0 gusting 4 20.0
2019-Dec-05 20:59 126 19.4
2019-Dec-05 20:47 056 0 gusting 2 20.0
2019-Dec-05 20:38 123 0 gusting 4 20.0
2019-Dec-05 20:28 198 0 gusting 3 20.6
2019-Dec-05 20:18 347 0 gusting 3 20.6
2019-Dec-05 20:08 236 0 gusting 4 20.0
2019-Dec-05 19:58 225 0 gusting 3 20.0
2019-Dec-05 19:49 202 0 gusting 2 20.0
2019-Dec-05 19:39 113 0 gusting 3 20.6
2019-Dec-05 19:28 107 20.6
2019-Dec-05 19:17 072 0 gusting 2 20.6
2019-Dec-05 19:08 153 20.6
2019-Dec-05 18:59 117 0 gusting 4 20.0
2019-Dec-05 18:48 083 0 gusting 3 20.0
2019-Dec-05 18:38 092 0 gusting 3 19.4
2019-Dec-05 18:29 074 0 gusting 2 19.4
2019-Dec-05 18:18 068 18.9
2019-Dec-05 18:08 031 1 gusting 2 18.9
2019-Dec-05 17:58 077 18.3
2019-Dec-05 17:48 114 0 gusting 2 18.3
2019-Dec-05 17:38 284 0 gusting 2 18.3
2019-Dec-05 17:29 088 17.2
2019-Dec-05 17:17 088 0 gusting 2 16.7
2019-Dec-05 17:08 074 16.7
2019-Dec-05 16:58 080 16.1
2019-Dec-05 16:48 084 1 gusting 3 15.6
2019-Dec-05 16:37 087 0 gusting 2 15.0
2019-Dec-05 16:28 111 14.4
2019-Dec-05 16:18 111 0 gusting 1 13.9
2019-Dec-05 16:08 111 0 gusting 2 13.9
2019-Dec-05 15:58 112 13.3
2019-Dec-05 15:48 112 13.3
2019-Dec-05 15:37 112 0 gusting 2 12.8
2019-Dec-05 15:29 114 12.2
2019-Dec-05 15:18 114 11.7
2019-Dec-05 15:09 114 11.1
2019-Dec-05 14:58 114 10.0
2019-Dec-05 14:48 114 9.4
2019-Dec-05 14:38 115 8.9
2019-Dec-05 14:28 115 7.8
2019-Dec-05 14:18 115 7.2
2019-Dec-05 14:08 115 6.7
2019-Dec-05 13:58 115 5.0
2019-Dec-05 13:48 115 4.4
2019-Dec-05 13:39 114 3.9
2019-Dec-05 13:18 115 3.3
2019-Dec-05 13:08 115 3.3
2019-Dec-05 12:59 115 3.3
2019-Dec-05 12:49 114 3.3
2019-Dec-05 12:39 115 3.3
2019-Dec-05 12:29 114 3.3
2019-Dec-05 12:19 114 3.3
2019-Dec-05 12:08 114 3.3
2019-Dec-05 11:58 114 3.3
2019-Dec-05 11:48 115 3.3
2019-Dec-05 11:38 115 3.3
2019-Dec-05 11:27 115 3.3
2019-Dec-05 11:18 114 3.3
2019-Dec-05 11:09 114 3.9
2019-Dec-05 10:58 115 3.9
2019-Dec-05 10:47 114 3.9
2019-Dec-05 10:38 115 3.9
2019-Dec-05 10:28 115 3.9
2019-Dec-05 10:19 114 3.9
2019-Dec-05 10:08 115 3.9
2019-Dec-05 09:58 115 3.9
2019-Dec-05 09:48 115 4.4
2019-Dec-05 09:37 115 4.4
2019-Dec-05 09:28 114 4.4
2019-Dec-05 09:19 114 4.4
2019-Dec-05 09:07 114 4.4
2019-Dec-05 08:58 115 4.4
2019-Dec-05 08:48 115 5.0
2019-Dec-05 08:38 115 5.0
2019-Dec-05 08:28 114 5.0
2019-Dec-05 08:18 115 5.0
2019-Dec-05 08:08 115 5.6
2019-Dec-05 07:59 115 5.6
2019-Dec-05 07:48 115 5.6
2019-Dec-05 07:38 114 5.6
2019-Dec-05 07:29 115 5.6
2019-Dec-05 07:18 115 5.6
2019-Dec-05 07:08 114 5.6
2019-Dec-05 06:57 115 5.6
2019-Dec-05 06:48 115 5.6
2019-Dec-05 06:39 114 5.6
2019-Dec-05 06:29 115 5.6
2019-Dec-05 06:19 114 5.6
2019-Dec-05 06:08 115 5.6
2019-Dec-05 05:58 115 5.6
2019-Dec-05 05:47 115 5.6
2019-Dec-05 05:38 115 6.1
2019-Dec-05 05:28 114 5.6
2019-Dec-05 05:18 114 6.1
2019-Dec-05 05:08 115 6.1
2019-Dec-05 04:58 115 6.1
2019-Dec-05 04:47 115 6.1
2019-Dec-05 04:38 114 6.1
2019-Dec-05 04:28 114 6.7
2019-Dec-05 04:18 115 6.7
2019-Dec-05 04:08 114 6.7
2019-Dec-05 03:59 114 6.7
2019-Dec-05 03:49 115 6.7
2019-Dec-05 03:38 115 7.2
2019-Dec-05 03:29 114 7.2
2019-Dec-05 03:19 115 7.2
2019-Dec-05 03:09 114 7.2
2019-Dec-05 02:58 114 7.2
2019-Dec-05 02:48 114 7.8
2019-Dec-05 02:39 114 7.8
2019-Dec-05 02:28 114 7.8
2019-Dec-05 02:18 114 8.3
2019-Dec-05 02:07 114 8.3
2019-Dec-05 01:58 115 8.3
2019-Dec-05 01:48 114 8.9
2019-Dec-05 01:38 115 8.9
2019-Dec-05 01:28 114 8.9
2019-Dec-05 01:18 114 9.4
2019-Dec-05 01:08 115 9.4
2019-Dec-05 00:57 115 10.0
2019-Dec-05 00:48 115 10.0
2019-Dec-05 00:38 115 10.0
2019-Dec-05 00:29 114 10.6
2019-Dec-05 00:18 115 10.6
2019-Dec-05 00:08 115 11.1
2019-Dec-04 23:58 114 11.1
2019-Dec-04 23:48 114 11.7
2019-Dec-04 23:37 115 12.2
2019-Dec-04 23:28 114 12.8
2019-Dec-04 23:18 115 13.3
2019-Dec-04 23:08 114 14.4
2019-Dec-04 22:58 115 15.0
2019-Dec-04 22:48 114 15.6
2019-Dec-04 22:38 114 16.1
2019-Dec-04 22:28 114 17.2
2019-Dec-04 22:19 114 17.8
2019-Dec-04 22:07 115 18.3
2019-Dec-04 21:57 114 19.4
2019-Dec-04 21:48 114 20.0
2019-Dec-04 21:39 217 20.6
2019-Dec-04 21:28 217 21.1
2019-Dec-04 21:17 217 21.1
2019-Dec-04 21:08 217 21.1
2019-Dec-04 20:58 241 21.1
2019-Dec-04 20:49 240 21.1
2019-Dec-04 20:39 254 0 gusting 1 21.7
2019-Dec-04 20:28 086 21.1
2019-Dec-04 20:17 223 0 gusting 2 21.1
2019-Dec-04 20:09 212 1 gusting 3 21.1
2019-Dec-04 19:59 200 21.1
2019-Dec-04 19:48 201 21.1
2019-Dec-04 19:39 219 0 gusting 3 21.1
2019-Dec-04 19:27 235 20.6
2019-Dec-04 19:18 206 0 gusting 4 20.6
2019-Dec-04 19:08 167 0 gusting 4 20.6
2019-Dec-04 18:58 304 0 gusting 4 20.6
2019-Dec-04 18:49 217 1 gusting 3 20.6
2019-Dec-04 18:39 238 0 gusting 3 20.6
2019-Dec-04 18:28 258 0 gusting 2 20.6
2019-Dec-04 18:19 217 20.0
2019-Dec-04 18:09 185 20.0
2019-Dec-04 17:59 085 0 gusting 1 19.4
2019-Dec-04 17:48 142 19.4
2019-Dec-04 17:39 197 0 gusting 2 19.4
2019-Dec-04 17:28 051 0 gusting 3 18.9
2019-Dec-04 17:18 214 18.3
2019-Dec-04 17:07 234 0 gusting 1 17.8
2019-Dec-04 16:57 251 1 gusting 2 17.8
2019-Dec-04 16:48 217 0 gusting 3 17.2
2019-Dec-04 16:39 225 16.7
2019-Dec-04 16:28 238 16.7
2019-Dec-04 16:18 240 0 gusting 1 16.1
2019-Dec-04 16:07 263 0 gusting 1 15.6
2019-Dec-04 15:58 317 15.6
2019-Dec-04 15:48 270 15.0
2019-Dec-04 15:37 160 0 gusting 2 14.4
2019-Dec-04 15:28 242 0 gusting 2 14.4
2019-Dec-04 15:17 222 0 gusting 1 13.9
2019-Dec-04 15:09 221 0 gusting 2 13.3
2019-Dec-04 14:57 215 2 gusting 4 12.8
2019-Dec-04 14:49 295 0 gusting 3 12.2
2019-Dec-04 14:38 211 12.2
2019-Dec-04 14:28 190 11.1
2019-Dec-04 14:19 192 10.6
2019-Dec-04 14:07 180 9.4
2019-Dec-04 13:58 246 8.9
2019-Dec-04 13:48 132 0 gusting 1 7.8
2019-Dec-04 13:39 201 7.2
2019-Dec-04 13:28 201 6.7
2019-Dec-04 13:18 200 6.7
2019-Dec-04 13:09 200 6.7
2019-Dec-04 12:58 200 6.7
2019-Dec-04 12:48 300 6.1
2019-Dec-04 12:38 259 6.1
2019-Dec-04 12:29 259 5.6
2019-Dec-04 12:18 286 5.6
2019-Dec-04 12:08 197 5.6
2019-Dec-04 11:57 192 5.6
2019-Dec-04 11:48 250 0 gusting 1 5.0
2019-Dec-04 11:39 207 5.0
2019-Dec-04 11:28 207 5.0
2019-Dec-04 11:18 207 5.0
2019-Dec-04 11:07 207 5.0
2019-Dec-04 10:59 207 5.0
2019-Dec-04 10:48 207 5.0
2019-Dec-04 10:37 207 5.6
2019-Dec-04 10:28 207 5.6
2019-Dec-04 10:18 207 5.6
2019-Dec-04 10:09 207 0 gusting 1 5.6
2019-Dec-04 09:58 207 5.6
2019-Dec-04 09:48 207 5.6
2019-Dec-04 09:38 207 5.6
2019-Dec-04 09:28 207 5.6
2019-Dec-04 09:18 207 6.1
2019-Dec-04 09:08 207 6.1
2019-Dec-04 08:58 207 6.1
2019-Dec-04 08:48 248 5.6
2019-Dec-04 08:38 248 5.6
2019-Dec-04 08:29 248 5.6
2019-Dec-04 08:19 248 5.0
2019-Dec-04 08:08 248 4.4
2019-Dec-04 07:59 248 3.9
2019-Dec-04 07:48 248 3.9
2019-Dec-04 07:38 248 3.9
2019-Dec-04 07:28 248 3.9
2019-Dec-04 07:18 248 3.9
2019-Dec-04 07:08 248 4.4
2019-Dec-04 06:57 248 4.4
2019-Dec-04 06:48 248 4.4
2019-Dec-04 06:38 267 4.4
2019-Dec-04 06:29 267 5.0
2019-Dec-04 06:18 267 5.0
2019-Dec-04 06:09 267 5.0
2019-Dec-04 05:58 267 5.0
2019-Dec-04 05:48 267 4.4
2019-Dec-04 05:39 267 4.4
2019-Dec-04 05:27 267 4.4
2019-Dec-04 05:18 267 4.4
2019-Dec-04 05:07 267 4.4